TITAN 3C TRANSTAGE R/B, 3432

Orbit data source: Space-Track

TITAN 3C TRANSTAGE R/B, 3432 is space debris in GEO originally from a launch on Thu, 26 Sep 1968 UTC launched from the Air Force Eastern Test Range (AFETR). Debris objects in space refer to the collection of defunct objects orbiting the Earth. Examples of debris include non-operational satellites, rocket bodies, and fragments generated from explosions, collisions, or faulty payload assembly.

Loading next visibility...
Identifier
3432, 1968-081E
Orbit
GEO
Country
Flag of USUS
Related business
Manufacturer
Martin Marietta
Mission
Spacecraft
Bus & Motor
TRANSTAGE, Unknown motor
Mass
~1,950 kg wet, ~1,950 kg dry
Launch date (UTC)
1968-09-26 (57 years ago)
Launch vehicle
Unknown
Launch site
Air Force Eastern Test Range (AFETR)
Object type
Payload
Rocket body
Debris
Shape & HBR
Unknown
Radar Cross Section
Large (>1 m²)

Expand to show TLE details & history
Last TLE update: 17 hours ago

TLE from 17 hours ago
0 TITAN 3C TRANSTAGE R/B
1 03432U 68081E   25291.25070921 -.00000252  00000-0  00000-0 0  9990
2 03432   1.4891  41.3650 0093980 280.7397  65.0781  1.01520532119525
Epoch: 2025-10-18T06:01Z
TLE epoch observation values (Epoch: 2025-10-18T06:01:01.275Z)
Latitude
-0.33734°
Longitude
-89.09573°
Altitude
35,275.586 km
Speed
3.1 km/s
True Right ascension
01h 52m 34s
True Declination
0° 20' 13"
Sunlit
Object was in daylight at epoch
Visualization orbit readout
Latitude
Unknown
Longitude
Unknown
Altitude
Unknown
Speed
Unknown
Apparent Right ascension
Unknown
Apparent Declination
Unknown
Sunlit
N/A
Visualization observer readout
Local Sidereal Time
17:41:12
Azimuth
Unknown
Elevation
Unknown
Doppler factor
Unknown
Orbital elements
Apogee altitude
35,834.215 km
Perigee altitude
35,048.179 km
Semi-major axis
41,819.334 km
Eccentricity
0.0094
Inclination
1.4891°
RAAN
41.365°
Arg. of periapsis
280.7397°
True anomaly
66.05956°
Mean anomaly
65.0781°
Eccentric anomaly
65.56835°
Mean motion
0.25379 °/min
Orbital period
1,418.49 mins
BSTAR
0
Loading maneuver chart data...
Computing Atmospheric mass density...

Documentation

Showing up to 5 results
|